Temp
20 20 20 20 19 19 18 18 17 18 18 18 18 18 17 17 17 18 18 17 17 17 17 17 17 17 16 16 16 15 15 15 15 14 14 13 12 12 12 12 11 11 11
19 20 19 19 19 19 19 17 17 17 18 18 18 18 18 18 19 18 18 17 17 17 17 17 17 17 17 16 16 16 15 15 14 14 13 10 12 13 13 12 12 12 11
18 19 19 18 18 18 19 17 17 18 18 18 18 18 18 18 17 17 18 17 17 17 17 17 17 17 17 17 16 16 15 14 14 14 14 8 9 11 13 13 13 12 12
18 20 18 17 17 19 21 18 16 17 18 19 18 18 17 16 17 17 16 17 17 17 17 17 17 17 17 17 17 16 16 16 14 14 15 15 14 9 9 12 12 13 12
12 17 17 18 19 20 20 20 17 16 17 18 18 18 17 18 17 17 16 16 17 17 17 17 17 17 16 17 17 16 16 16 15 14 14 15 14 13 11 8 11 12 12
11 11 12 13 13 16 16 16 16 16 16 16 17 17 18 17 17 17 16 17 16 16 16 16 17 16 16 16 17 17 16 16 16 15 15 15 14 13 13 10 10 11 12
8 9 9 10 10 10 12 13 14 15 16 15 15 16 17 17 17 16 16 17 16 15 15 16 16 16 16 16 16 16 16 16 16 16 15 15 15 15 15 14 12 12 13
6 7 7 7 8 8 8 11 12 13 15 15 15 15 17 17 16 17 16 17 17 16 16 16 16 16 16 16 16 16 16 16 16 16 15 15 15 15 15 15 14 9 11
5 5 5 5 6 6 6 7 8 11 10 12 14 15 15 15 16 17 17 16 17 17 17 17 16 16 16 16 16 15 16 16 15 15 15 15 15 15 15 15 15 14 10
4 4 4 4 4 4 5 5 6 7 8 10 11 11 14 15 15 15 16 16 16 16 17 17 16 16 16 15 15 15 15 15 15 15 14 14 14 14 15 15 15 15 14
4 4 3 3 3 3 3 4 4 5 6 7 10 11 12 12 15 15 15 16 16 16 16 16 17 16 16 16 15 14 14 14 15 14 14 14 14 13 13 15 15 15 14
3 3 3 2 2 2 2 3 2 3 4 6 6 7 11 12 13 15 16 15 15 16 16 16 16 16 16 15 14 14 14 14 13 13 13 13 15 13 13 13 14 14 14
1 2 2 2 1 1 1 1 1 2 3 3 5 6 9 10 11 12 14 15 15 16 16 15 16 16 15 15 14 14 14 14 13 13 12 13 13 13 13 13 13 13 13
1 1 1 1 1 1 1 1 1 1 2 2 3 4 6 8 10 11 13 14 15 15 16 16 16 15 16 15 15 14 14 14 13 13 13 13 12 13 13 12 12 12 12
1 1 0 0 0 0 0 0 0 0 1 1 2 3 5 7 8 11 13 13 14 14 15 16 15 15 15 14 14 14 14 14 14 13 13 13 13 13 13 12 12 12 12
1 1 0 -0 -0 -0 -1 -1 -0 0 0 1 2 3 4 6 7 9 10 11 13 14 14 15 15 15 14 14 15 15 14 14 14 13 13 13 13 13 13 13 13 13 12
0 0 -0 -1 -1 -1 -1 -1 -1 -0 0 2 3 4 5 6 8 8 9 11 12 14 14 14 15 15 15 15 15 16 14 14 14 13 13 13 13 13 13 13 13 13 13
-0 -0 -1 -1 -1 -1 -1 -1 -1 -0 1 2 3 4 4 5 6 8 9 10 12 14 14 14 14 15 15 15 16 15 15 14 14 14 13 13 13 13 13 12 12 12 12
-1 -1 -2 -2 -1 -1 -2 -2 -1 0 1 2 3 3 4 5 6 8 8 10 11 14 14 14 16 15 15 16 15 16 15 14 14 14 14 13 13 13 13 13 13 13 13
-1 -1 -1 -2 -2 -2 -2 -2 -1 -0 0 1 2 3 4 5 6 6 8 9 11 13 14 15 17 17 16 16 16 16 16 13 13 13 14 14 13 13 13 13 13 13 13
0 -0 -0 -1 -2 -2 -2 -1 -1 -1 -1 1 2 2 3 3 3 4 6 7 9 11 11 12 12 12 12 12 12 13 13 13 13 13 13 13 13 13 13 14 13 13 13
2 2 0 -1 -1 -2 -2 -1 -1 -1 -1 0 1 1 1 1 1 1 2 3 5 5 6 6 7 8 8 8 10 10 8 10 10 12 13 13 13 13 14 14 14 14 14
2 2 1 0 0 -1 -2 -1 -1 -1 -1 -1 -0 -0 0 0 0 -1 -1 -1 -0 0 0 1 1 1 3 6 7 9 9 10 8 9 10 11 11 12 12 12 12 11 11
2 1 1 -0 -0 -0 -0 -1 -1 -1 -1 -1 -1 -1 -1 -0 -1 -1 -1 -2 -2 -2 -2 -1 -1 -1 -1 -1 2 3 4 5 7 8 7 8 9 9 9 10 10 10 9
2 1 0 -0 0 -0 -0 -0 -0 -0 -1 -1 -1 -1 -1 -1 -1 -1 -2 -2 -2 -3 -2 -3 -2 -2 -2 -3 -1 1 1 2 4 6 6 6 6 7 8 9 9 9 9
1 1 -0 -1 -0 -1 -1 0 -0 -0 -1 -1 -2 -2 -1 -1 -1 -1 -1 -1 -2 -2 -2 -3 -3 -3 -3 -2 1 1 1 2 3 1 1 1 2 2 3 4 4 6 8
Height
769 773 779 787 792 797 803 809 813 821 826 832 837 841 844 847 850 853 856 860 863 866 868 871 874 876 880 883 887 890 893 896 899 901 904 907 907 907 908 909 910 911 912
766 770 776 783 789 793 799 806 811 811 821 827 832 836 840 845 848 851 854 857 860 863 866 866 868 872 877 880 883 886 890 894 896 898 903 908 908 906 907 906 907 908 909
761 765 773 778 785 790 796 801 806 810 817 824 831 834 839 844 846 847 849 852 856 860 864 866 867 868 873 875 879 883 886 890 893 895 896 905 905 903 903 904 905 905 906
759 761 770 779 782 786 790 795 802 806 811 818 825 829 833 837 840 844 846 848 852 857 861 865 867 869 868 871 874 879 883 887 889 892 892 892 894 899 902 900 900 902 902
781 770 768 771 774 781 788 793 797 805 809 813 819 825 830 834 837 840 843 850 851 854 858 861 866 869 870 870 872 875 877 881 884 885 888 890 892 893 894 897 895 897 897
798 793 789 787 787 789 792 793 793 799 806 811 813 818 824 830 835 838 841 846 849 851 855 858 860 865 869 871 871 873 875 876 879 882 884 885 887 888 889 891 891 890 891
814 809 805 804 801 800 799 799 802 803 805 809 814 816 819 824 829 835 837 842 845 848 850 855 857 859 862 867 869 871 872 873 875 877 878 880 882 884 886 887 887 887 887
831 823 818 817 813 810 808 804 804 806 808 810 812 814 816 822 826 830 833 837 840 842 847 850 853 856 858 861 866 868 869 871 871 873 875 875 877 879 880 881 883 884 883
840 833 828 827 821 819 816 813 811 809 811 811 814 815 817 820 820 824 827 831 834 837 841 844 847 850 853 854 859 861 863 864 867 868 870 871 872 874 874 875 877 877 880
842 839 836 832 828 826 822 818 817 812 814 812 813 813 815 817 819 820 821 825 829 833 835 838 841 844 847 850 851 854 857 859 859 861 864 864 866 867 868 869 869 871 871
851 847 841 838 834 828 825 823 819 815 815 815 812 812 814 813 815 817 818 820 823 827 829 831 834 837 839 842 844 846 848 850 852 854 856 855 858 859 861 862 862 863 864
852 847 846 841 834 831 831 829 823 816 811 810 812 814 811 812 811 813 814 816 817 819 822 825 827 829 831 833 837 838 839 841 842 845 847 847 848 850 851 853 853 853 855
845 845 840 840 837 834 831 827 823 818 814 811 808 810 807 809 810 809 810 812 813 814 815 818 820 821 823 825 827 829 831 832 833 834 837 836 840 840 840 842 843 844 845
851 850 838 834 829 828 827 823 818 812 809 807 807 804 803 804 805 806 806 804 807 808 809 810 812 815 816 817 819 821 823 825 824 826 827 827 830 829 830 833 833 834 835
852 846 837 829 827 826 818 814 812 809 807 804 803 802 801 801 801 800 800 802 801 802 803 803 805 807 807 809 811 813 813 815 816 816 816 817 818 818 820 823 823 825 825
859 849 833 829 830 825 817 818 812 809 806 804 802 800 798 797 796 795 795 796 796 795 796 796 796 797 798 800 802 804 805 806 807 807 806 807 808 808 808 811 811 812 814
860 846 843 843 837 829 824 818 812 809 807 802 798 797 794 792 791 790 789 788 787 788 787 787 788 788 789 791 793 794 795 797 797 796 797 798 798 798 797 797 799 802 803
856 856 854 847 839 832 828 820 812 809 806 801 796 792 789 787 785 784 782 781 779 777 778 779 780 780 780 781 783 785 785 785 786 786 787 787 787 788 787 787 789 788 789
866 861 856 850 845 837 826 817 812 810 801 796 794 790 787 783 779 777 775 774 771 769 770 770 772 772 773 774 776 778 778 777 776 777 776 776 776 774 777 778 778 777 776
861 856 852 846 839 831 824 817 812 806 800 798 792 786 781 778 775 773 770 768 766 762 764 763 765 767 768 770 770 771 769 768 769 768 765 764 763 763 764 763 766 764 765
858 855 851 846 839 831 823 816 811 805 799 793 786 782 778 776 774 770 767 764 761 759 759 761 763 764 764 765 762 761 760 759 759 757 755 754 754 755 756 754 753 752 752
858 855 851 846 841 833 825 818 810 803 797 792 789 784 780 778 774 770 767 763 760 759 759 760 761 761 761 760 758 757 756 754 753 749 748 746 747 746 744 747 743 741 740
862 859 855 849 844 838 829 822 813 807 804 798 793 788 784 782 779 774 771 768 767 764 764 767 765 763 761 757 754 753 751 750 747 745 742 741 740 739 738 735 733 731 731
863 860 856 851 846 840 833 828 821 812 807 801 795 792 790 788 786 782 777 778 776 775 774 768 769 770 766 763 754 752 749 745 742 739 736 732 730 727 725 723 722 720 720
866 862 858 853 848 843 836 830 825 818 811 806 802 799 794 792 791 789 789 787 787 784 783 782 779 776 772 768 763 757 751 747 741 735 731 729 726 721 719 716 714 711 710
868 865 861 856 851 846 840 834 829 822 817 812 809 807 804 801 798 796 796 795 794 791 790 786 785 782 780 772 761 757 752 748 742 739 736 732 727 724 721 716 709 705 700
Wind_Speed
20 30 31 32 33 36 37 37 37 45 45 41 35 36 35 37 38 40 36 35 34 34 32 30 30 27 32 30 27 27 26 23 22 20 13 9 10 15 15 16 17 16 14
15 22 27 30 32 34 38 37 35 42 44 39 37 37 36 36 37 38 37 36 34 36 36 35 33 35 35 31 30 29 30 25 28 18 12 1 5 15 15 15 17 16 16
18 17 22 28 31 30 34 37 37 42 42 44 37 33 29 28 30 37 38 39 36 36 36 35 36 37 36 33 32 31 34 27 30 24 8 3 4 6 15 21 19 19 19
9 16 19 20 28 34 36 36 36 43 45 46 41 37 30 24 24 33 33 39 36 36 37 36 37 37 37 34 34 33 35 31 32 28 22 6 7 3 1 16 24 25 25
26 1 13 25 36 35 35 35 35 38 41 44 44 41 31 28 26 29 22 33 34 35 38 38 36 37 37 35 34 36 38 35 35 35 30 17 11 7 3 3 10 24 30
24 24 30 27 21 8 1 19 31 35 38 39 43 45 40 33 27 27 27 32 35 35 38 38 39 39 36 34 36 36 38 38 37 38 32 28 17 17 8 3 6 17 22
23 22 24 29 31 31 24 18 10 14 34 36 34 37 40 37 37 30 29 29 32 35 37 38 38 40 40 38 36 37 39 40 40 38 39 34 32 23 20 16 7 11 22
19 20 27 28 29 29 29 28 25 14 14 30 33 38 41 40 36 36 33 32 34 35 36 39 38 41 41 39 38 38 39 40 41 40 39 38 38 35 29 22 17 3 9
18 18 26 27 27 27 27 26 23 20 18 18 16 30 32 33 37 37 36 33 34 34 37 38 43 41 41 40 41 41 41 41 41 41 40 39 38 36 35 33 32 21 4
19 17 23 25 25 24 24 26 21 20 16 17 15 15 23 33 32 33 37 37 32 34 36 36 39 42 43 42 42 43 42 42 43 44 40 42 41 39 36 37 35 34 24
16 14 21 22 22 23 24 24 25 22 18 15 16 16 11 11 34 31 32 37 37 35 32 33 35 40 40 43 42 43 41 44 45 44 41 43 41 38 35 38 38 39 36
16 18 19 21 23 22 21 20 22 22 22 18 17 17 15 14 12 30 30 30 35 37 38 37 36 39 39 39 40 42 39 44 42 44 41 44 44 41 37 34 38 38 37
19 18 21 20 20 21 21 21 21 18 21 21 22 22 18 19 17 13 23 33 35 36 34 36 35 36 39 38 39 40 41 41 43 43 39 47 39 41 39 37 36 35 36
14 14 17 23 25 26 22 21 23 24 25 25 25 25 23 23 23 22 18 24 36 36 38 36 37 38 40 39 38 38 40 40 41 43 42 44 39 43 40 38 37 38 33
18 18 18 24 27 28 30 30 28 27 26 24 26 26 25 25 24 25 24 23 30 35 38 39 38 37 39 39 39 41 40 39 41 41 42 45 43 45 44 38 38 35 33
17 19 25 30 28 29 30 28 27 25 27 25 23 23 22 23 24 24 20 24 26 33 35 37 38 37 37 38 41 43 40 39 39 39 42 43 45 48 50 50 50 41 36
14 17 21 24 28 31 31 29 27 27 24 23 24 21 21 20 20 21 27 28 28 30 36 36 38 40 41 39 42 43 46 40 40 41 41 40 42 45 48 51 54 53 52
14 17 22 26 29 31 28 27 25 25 21 18 19 19 20 21 21 24 28 28 25 30 33 35 38 39 39 41 41 42 46 46 43 41 42 43 42 39 42 44 39 47 54
15 16 23 26 25 26 29 28 24 19 15 15 17 16 17 21 19 20 23 23 20 26 31 34 37 37 36 39 40 40 43 44 43 42 43 43 43 46 47 42 37 39 39
16 19 25 28 29 33 32 25 21 16 13 16 15 12 11 12 13 16 17 14 13 14 26 33 32 31 32 33 34 35 40 37 36 39 40 42 48 48 50 46 42 37 39
19 18 22 25 31 34 34 24 22 20 17 15 15 17 16 12 9 7 7 7 7 5 3 3 4 5 8 10 15 22 32 32 32 32 34 37 41 45 53 53 45 41 42
20 20 23 26 27 32 32 27 26 26 22 18 18 20 22 19 19 17 17 17 16 16 16 14 12 13 12 13 12 12 12 14 24 25 29 31 32 34 40 49 52 56 53
16 19 22 22 25 28 30 24 33 28 23 24 23 24 23 25 25 29 28 27 26 27 24 20 21 24 24 20 20 18 20 20 23 23 25 28 30 32 36 39 39 35 36
17 19 23 22 22 29 29 25 26 28 24 26 29 28 26 24 27 27 32 29 26 23 23 24 22 21 26 30 29 27 28 29 27 26 26 28 32 33 35 38 39 38 34
16 18 21 22 22 26 28 28 28 28 23 25 27 26 25 27 24 28 30 28 33 31 24 23 19 22 25 30 20 19 23 23 24 23 19 18 18 21 25 27 29 29 32
14 16 18 19 21 23 25 26 25 27 28 24 25 25 24 24 24 23 22 26 27 31 30 30 28 22 26 25 22 19 25 21 16 20 19 18 21 19 20 20 21 24 30
Wind_Direction
194 187 186 186 184 185 185 181 179 185 186 191 188 189 192 188 193 197 195 191 191 188 185 185 186 186 185 181 181 178 179 176 174 163 166 175 173 177 189 194 200 203 204
191 185 182 181 185 190 191 183 182 179 186 187 181 179 180 189 198 197 196 197 196 193 191 189 188 187 185 185 186 186 179 181 177 168 143 125 224 215 213 208 207 210 207
185 179 177 175 183 186 194 186 186 179 183 187 185 173 174 177 187 194 198 200 200 198 197 198 195 191 191 189 192 194 189 182 183 185 157 131 218 190 217 217 218 217 220
170 178 173 167 174 190 202 195 183 180 185 189 189 188 180 176 191 195 201 201 203 204 203 203 205 201 200 197 197 199 196 194 192 192 206 205 164 178 238 220 225 223 226
28 237 165 175 186 191 196 203 193 184 189 190 191 199 197 195 198 207 206 208 207 210 210 208 211 211 209 206 202 202 203 205 204 202 207 211 200 212 147 216 213 224 228
26 26 34 43 44 64 138 192 183 181 193 195 198 201 206 204 203 207 212 215 215 214 216 215 214 215 216 216 212 212 210 209 213 212 215 216 216 224 206 182 215 219 231
21 22 26 26 31 36 51 61 56 192 191 196 201 201 205 209 214 215 211 217 219 217 216 219 219 220 220 223 222 218 216 216 218 221 223 227 230 233 233 226 211 225 235
13 17 20 19 22 21 26 47 48 42 198 198 207 209 209 214 218 223 219 220 226 227 224 220 223 227 225 223 227 227 224 224 226 227 230 234 239 235 237 237 225 234 243
6 11 13 11 14 12 14 21 28 44 27 30 220 213 213 214 221 229 231 223 229 232 231 228 228 230 232 227 227 228 228 228 232 232 235 237 242 244 243 244 245 230 217
2 4 6 4 4 5 7 10 13 26 15 19 16 12 237 222 222 224 228 229 229 230 234 233 230 232 234 235 229 228 232 232 235 236 235 239 241 246 248 245 244 246 238
351 357 357 357 358 358 360 357 360 3 5 358 351 347 330 317 226 224 233 233 234 227 231 234 231 231 233 236 234 230 230 234 237 239 237 240 243 242 244 245 245 245 247
348 352 355 355 352 354 353 350 352 352 348 337 334 320 320 323 318 248 236 246 241 236 236 234 228 230 232 233 229 232 227 234 233 238 234 242 245 243 242 239 244 242 244
350 346 350 357 357 346 342 344 342 347 342 338 323 311 310 303 299 317 260 247 250 250 244 237 235 232 230 229 231 230 230 231 236 237 234 241 239 242 240 237 239 241 243
355 348 352 349 346 343 343 343 340 337 335 331 325 317 308 299 292 284 284 270 252 250 249 246 240 238 242 240 237 232 231 232 235 238 237 242 237 242 241 238 237 239 238
348 350 350 349 348 342 340 337 336 331 328 323 317 311 307 302 295 284 276 279 263 256 253 253 250 238 235 237 235 238 234 234 236 239 240 243 241 246 244 239 239 238 238
347 345 351 350 343 338 341 329 326 323 319 311 303 302 299 298 293 292 283 277 273 253 250 245 244 241 242 236 246 244 237 236 236 239 240 244 245 247 251 247 243 241 234
347 358 354 342 336 332 327 323 318 315 305 299 299 297 297 293 287 284 283 280 280 248 248 246 242 243 247 244 246 249 239 237 238 236 241 243 244 246 247 248 247 249 247
350 350 349 338 335 330 323 323 321 308 300 297 294 298 298 294 292 283 281 284 282 240 238 242 245 245 249 251 253 250 245 237 238 240 244 242 245 245 244 244 242 248 248
327 331 343 337 331 334 335 331 325 312 312 313 302 297 294 297 295 289 287 289 290 247 237 239 250 250 253 262 253 252 249 243 243 245 245 242 242 246 247 243 242 245 249
338 341 345 342 343 343 341 333 336 331 326 326 323 323 319 309 299 296 295 298 294 277 247 246 254 261 264 272 276 271 261 245 247 251 248 247 244 245 249 243 243 244 247
345 353 353 348 347 348 346 339 348 348 345 357 14 19 25 16 351 341 352 349 3 20 35 353 321 326 321 323 304 287 271 255 252 251 250 250 249 249 249 247 244 242 250
358 5 353 347 349 354 351 353 358 3 15 21 29 38 36 36 39 48 46 48 47 45 41 27 15 8 351 346 336 339 347 297 275 269 260 259 262 256 260 255 256 256 255
6 11 2 353 357 3 2 355 3 14 17 38 38 38 44 41 43 46 42 40 42 40 36 33 21 10 1 358 353 334 324 317 315 299 290 286 282 277 280 284 284 286 280
8 7 4 356 0 7 10 6 9 19 22 34 37 42 39 45 45 48 49 44 40 41 33 28 25 9 8 1 5 356 344 332 324 319 308 297 296 291 288 287 286 284 274
15 13 9 358 360 8 17 17 16 24 23 30 32 34 37 42 45 51 51 52 50 49 43 31 27 20 9 3 5 10 3 350 333 325 338 341 328 308 294 285 277 274 272
20 16 11 5 8 7 18 25 24 30 29 31 29 27 32 34 39 42 44 49 46 50 51 51 42 32 29 26 25 27 28 22 24 29 16 5 359 352 342 335 323 298 278